Weather History for KHLR - November, 2012

Change the Weather History Date:

Friday, November 30, 2012

  Actual Average Record
Temperature  
Mean Temperature 70 °F -  
Max Temperature 79 °F 64 °F 81 °F (2014)
Min Temperature 60 °F 45 °F 32 °F (2006)
Cooling Degree Days 4    
Growing Degree Days 20 (Base 50)    
Moisture  
Dew Point 57 °F    
Average Humidity 71    
Maximum Humidity 88    
Minimum Humidity 47    
Precipitation  
Precipitation 0.00 in - - ()
Sea Level Pressure  
Sea Level Pressure 30.17 in    
Wind  
Wind Speed 7 mph (SSE)    
Max Wind Speed 13 mph    
Max Gust Speed 21 mph    
Visibility 10 miles    
Events      
Averages and records for this station are not official NWS values.
T = Trace of Precipitation, MM = Missing Value Source: NWS Daily Summary

Daily Weather History Graph

Daily Weather History Graph

Search for Another Location

Airport or City:

Trip Planner

Search our weather history database for the weather conditions in past years. The results will help you decide how hot, cold, wet, or windy it might be!

Date:

Astronomy

Nov. 30, 2012 Rise Set
Actual Time 7:11 AM CST 5:28 PM CST
Civil Twilight 6:44 AM CST 5:54 PM CST
Nautical Twilight 6:14 AM CST 6:24 PM CST
Astronomical Twilight 5:45 AM CST 6:53 PM CST
Moon 7:23 PM CST (11/30) 8:44 AM CST (11/30)
Length of Visible Light 11h 09m
Length of Day
10h 16m
Waning Gibbous, 96% of the Moon is Illuminated
Nov 30
Waning Gibbous
Dec 6
Last Quarter
Dec 13
New
Dec 19
First Quarter
Dec 28
Full

Hourly Weather History & Observations

Time (CST) Temp. Dew Point Humidity Pressure Visibility Wind Dir Wind Speed Gust Speed Precip Events Conditions
12:56 AM 61.0 °F 53.1 °F 75% 30.23 in 10.0 mi SE 5.8 mph - N/A   Clear
1:20 AM 60.8 °F 53.6 °F 77% 30.14 in 10.0 mi SSE 5.8 mph - N/A   Mostly Cloudy
1:56 AM 61.0 °F 54.0 °F 78% 30.22 in 10.0 mi SSE 5.8 mph - N/A   Overcast
2:56 AM 62.1 °F 55.9 °F 80% 30.21 in 10.0 mi SSE 6.9 mph - N/A   Overcast
3:09 AM 62.6 °F 55.4 °F 77% 30.13 in 10.0 mi SE 5.8 mph - N/A   Overcast
3:28 AM 60.8 °F 57.2 °F 88% 30.13 in 10.0 mi SSE 5.8 mph - N/A   Scattered Clouds
3:51 AM 62.6 °F 57.2 °F 82% 30.13 in 10.0 mi SSE 5.8 mph - N/A   Mostly Cloudy
3:56 AM 62.1 °F 57.0 °F 84% 30.21 in 10.0 mi SSE 6.9 mph - N/A   Mostly Cloudy
4:33 AM 62.6 °F 57.2 °F 82% 30.12 in 10.0 mi SE 5.8 mph - N/A   Overcast
4:56 AM 63.0 °F 57.9 °F 84% 30.20 in 10.0 mi SSE 5.8 mph - N/A   Overcast
5:14 AM 62.6 °F 57.2 °F 82% 30.12 in 10.0 mi SSE 5.8 mph - N/A   Overcast
5:33 AM 62.6 °F 57.2 °F 82% 30.12 in 10.0 mi SSE 6.9 mph - N/A   Overcast
5:56 AM 63.0 °F 57.9 °F 84% 30.21 in 10.0 mi SE 6.9 mph - N/A   Overcast
6:56 AM 63.0 °F 57.9 °F 84% 30.22 in 10.0 mi SSE 5.8 mph - N/A   Overcast
7:56 AM 63.0 °F 59.0 °F 87% 30.23 in 10.0 mi SE 8.1 mph - N/A   Overcast
8:48 AM 64.4 °F 59.0 °F 83% 30.16 in 10.0 mi SE 6.9 mph - N/A   Overcast
8:56 AM 64.9 °F 59.0 °F 81% 30.25 in 10.0 mi SE 6.9 mph - N/A   Overcast
9:56 AM 68.0 °F 57.9 °F 70% 30.25 in 10.0 mi South 9.2 mph - N/A   Mostly Cloudy
10:15 AM 69.8 °F 57.2 °F 64% 30.17 in 10.0 mi South 9.2 mph - N/A   Scattered Clouds
10:22 AM 71.6 °F 59.0 °F 64% 30.16 in 10.0 mi SSE 11.5 mph - N/A   Mostly Cloudy
10:34 AM 71.6 °F 57.2 °F 60% 30.16 in 10.0 mi SSW 10.4 mph - N/A   Scattered Clouds
10:45 AM 71.6 °F 57.2 °F 60% 30.16 in 10.0 mi South 12.7 mph - N/A   Mostly Cloudy
10:56 AM 73.0 °F 57.9 °F 59% 30.24 in 10.0 mi South 10.4 mph 16.1 mph N/A   Scattered Clouds
11:47 AM 75.2 °F 57.2 °F 53% 30.14 in 10.0 mi South 11.5 mph - N/A   Mostly Cloudy
11:56 AM 75.9 °F 57.9 °F 54% 30.21 in 10.0 mi South 11.5 mph - N/A   Scattered Clouds
12:56 PM 78.1 °F 57.9 °F 50% 30.16 in 10.0 mi South 12.7 mph 18.4 mph N/A   Scattered Clouds
1:56 PM 79.0 °F 57.9 °F 48% 30.13 in 10.0 mi SSE 11.5 mph - N/A   Clear
2:56 PM 79.0 °F 57.0 °F 47% 30.11 in 10.0 mi South 11.5 mph 18.4 mph N/A   Partly Cloudy
3:56 PM 79.0 °F 57.9 °F 48% 30.10 in 10.0 mi SE 12.7 mph 19.6 mph N/A   Partly Cloudy
4:56 PM 75.9 °F 57.0 °F 52% 30.11 in 10.0 mi South 10.4 mph 20.7 mph N/A   Clear
5:56 PM 73.0 °F 57.0 °F 57% 30.13 in 10.0 mi South 6.9 mph - N/A   Clear
6:56 PM 70.0 °F 57.0 °F 63% 30.14 in 10.0 mi Calm Calm - N/A   Clear
7:56 PM 68.0 °F 57.0 °F 68% 30.14 in 10.0 mi SE 3.5 mph - N/A   Clear
8:56 PM 64.9 °F 57.0 °F 75% 30.14 in 10.0 mi SE 4.6 mph - N/A   Clear
9:56 PM 64.9 °F 57.0 °F 75% 30.15 in 10.0 mi SE 4.6 mph - N/A   Clear
10:56 PM 64.0 °F 57.0 °F 78% 30.16 in 10.0 mi SE 4.6 mph - N/A   Clear
11:56 PM 64.0 °F 57.0 °F 78% 30.15 in 10.0 mi SSE 5.8 mph - N/A   Scattered Clouds